LH456 LOWL-LIPZ

Flight info

Callsign LH456
Flight time 0h 40m
Altitude 34000
Route LOWL/08 N0421F340 LIMR2E LIMRA DCT PESUT/N0418F330 DCT RIFEN DCT BADOP/N0339F190 P125 TULIK Z71 BASOG BASO2E LIPZ/04R
Aircraft A20N/M-SDGRWY/LB1

Departure

Time 2026-04-29 11:04
Airport Linz-Hörsching Airport (LOWL)

Arrival

Time 2026-04-29 11:44
Airport Venice Marco Polo Airport (LIPZ)
Time Latitude Longitude Altitude Speed Heading
2026-04-29 10:44 48.23841 14.19150 984 ft 0 kts 87°
2026-04-29 10:59 48.23841 14.19153 983 ft 2 kts 87°
2026-04-29 11:00 48.23797 14.19205 977 ft 10 kts 192°
2026-04-29 11:00 48.23759 14.19269 977 ft 13 kts 90°
2026-04-29 11:00 48.23764 14.19446 974 ft 21 kts 86°
2026-04-29 11:00 48.23702 14.19624 968 ft 22 kts 162°
2026-04-29 11:01 48.23558 14.19712 976 ft 22 kts 159°
2026-04-29 11:01 48.23514 14.19737 977 ft 0 kts 158°
2026-04-29 11:01 48.23511 14.19739 977 ft 2 kts 158°
2026-04-29 11:02 48.23459 14.19770 973 ft 15 kts 158°
2026-04-29 11:02 48.23372 14.19748 978 ft 12 kts 230°
2026-04-29 11:02 48.23354 14.19681 983 ft 0 kts 268°
2026-04-29 11:03 48.23351 14.19568 977 ft 40 kts 268°
2026-04-29 11:03 48.23326 14.18798 978 ft 105 kts 266°
2026-04-29 11:03 48.23275 14.17439 988 ft 153 kts 267°
2026-04-29 11:03 48.23217 14.15724 1324 ft 166 kts 267°
2026-04-29 11:04 48.23157 14.14010 1908 ft 166 kts 267°
2026-04-29 11:04 48.22992 14.12321 2504 ft 168 kts 245°
2026-04-29 11:04 48.22200 14.11097 2858 ft 168 kts 203°
2026-04-29 11:04 48.20982 14.11006 3114 ft 191 kts 161°
2026-04-29 11:05 48.19816 14.12158 3575 ft 213 kts 139°
2026-04-29 11:05 48.18983 14.14068 4071 ft 234 kts 102°
2026-04-29 11:05 48.19164 14.16535 4648 ft 247 kts 61°
2026-04-29 11:05 48.20219 14.18574 5516 ft 249 kts 44°
2026-04-29 11:06 48.21467 14.20404 6392 ft 253 kts 45°
2026-04-29 11:06 48.22542 14.22505 7248 ft 256 kts 60°
2026-04-29 11:06 48.23236 14.24974 8092 ft 259 kts 73°
2026-04-29 11:06 48.23604 14.27633 8918 ft 263 kts 82°
2026-04-29 11:07 48.23662 14.30430 9467 ft 279 kts 100°
2026-04-29 11:07 48.22888 14.33162 10047 ft 292 kts 128°
2026-04-29 11:07 48.21367 14.35222 10538 ft 311 kts 151°
2026-04-29 11:07 48.19257 14.36306 10996 ft 334 kts 175°
2026-04-29 11:08 48.16898 14.36010 11468 ft 345 kts 199°
2026-04-29 11:08 48.14650 14.34680 12250 ft 349 kts 207°
2026-04-29 11:08 48.12395 14.33249 13060 ft 354 kts 204°
2026-04-29 11:08 48.10042 14.32016 13782 ft 363 kts 200°
2026-04-29 11:09 48.07631 14.31003 14629 ft 364 kts 197°
2026-04-29 11:09 48.05115 14.30091 15359 ft 369 kts 195°
2026-04-29 11:09 48.02634 14.29256 16080 ft 374 kts 195°
2026-04-29 11:09 48.00072 14.28415 16759 ft 378 kts 195°
2026-04-29 11:10 47.97492 14.27569 17486 ft 382 kts 195°
2026-04-29 11:10 47.94880 14.26708 18205 ft 386 kts 195°
2026-04-29 11:10 47.92248 14.25836 18845 ft 390 kts 195°
2026-04-29 11:10 47.89580 14.24964 19504 ft 392 kts 196°
2026-04-29 11:11 47.86884 14.24213 20134 ft 399 kts 187°
2026-04-29 11:11 47.84085 14.24519 20730 ft 411 kts 170°
2026-04-29 11:11 47.81273 14.25205 21284 ft 411 kts 179°
2026-04-29 11:11 47.78444 14.26114 21803 ft 423 kts 162°
2026-04-29 11:12 47.75697 14.27768 22322 ft 425 kts 168°
2026-04-29 11:12 47.72815 14.28499 22958 ft 417 kts 184°
2026-04-29 11:12 47.69965 14.28095 23517 ft 407 kts 200°
2026-04-29 11:12 47.67275 14.26843 24047 ft 405 kts 207°
2026-04-29 11:13 47.64625 14.25412 24618 ft 406 kts 206°
2026-04-29 11:13 47.61955 14.24075 25065 ft 411 kts 204°
2026-04-29 11:13 47.59169 14.22828 25543 ft 415 kts 203°
2026-04-29 11:13 47.56373 14.21679 26022 ft 418 kts 202°
2026-04-29 11:14 47.53588 14.20585 26493 ft 420 kts 201°
2026-04-29 11:14 47.50714 14.19479 26932 ft 423 kts 201°
2026-04-29 11:14 47.47853 14.18382 27348 ft 426 kts 201°
2026-04-29 11:14 47.45002 14.17288 27776 ft 429 kts 201°
2026-04-29 11:15 47.42102 14.16173 28168 ft 433 kts 201°
2026-04-29 11:15 47.39170 14.15042 28597 ft 435 kts 201°
2026-04-29 11:15 47.36222 14.13907 28973 ft 439 kts 201°
2026-04-29 11:15 47.33247 14.12766 29313 ft 442 kts 201°
2026-04-29 11:16 47.30248 14.11619 29626 ft 446 kts 201°
2026-04-29 11:16 47.27235 14.10470 29988 ft 448 kts 201°
2026-04-29 11:16 47.24208 14.09312 30349 ft 451 kts 201°
2026-04-29 11:16 47.21159 14.08150 30727 ft 453 kts 201°
2026-04-29 11:17 47.18107 14.06984 31061 ft 454 kts 201°
2026-04-29 11:17 47.15039 14.05810 31385 ft 456 kts 201°
2026-04-29 11:17 47.11970 14.04640 31770 ft 456 kts 201°
2026-04-29 11:17 47.08903 14.03475 32194 ft 455 kts 201°
2026-04-29 11:18 47.05841 14.02313 32642 ft 453 kts 202°
2026-04-29 11:18 47.02792 14.01156 33078 ft 452 kts 202°
2026-04-29 11:18 46.99776 14.00013 33510 ft 451 kts 202°
2026-04-29 11:18 46.96745 13.98867 33944 ft 449 kts 202°
2026-04-29 11:19 46.93713 13.97720 34127 ft 449 kts 202°
2026-04-29 11:19 46.87673 13.95438 34177 ft 447 kts 202°
2026-04-29 11:20 46.81641 13.93165 34179 ft 448 kts 202°
2026-04-29 11:20 46.75621 13.90900 34185 ft 447 kts 202°
2026-04-29 11:21 46.69610 13.88645 34182 ft 448 kts 201°
2026-04-29 11:21 46.63574 13.86390 34179 ft 448 kts 201°
2026-04-29 11:22 46.57537 13.84138 34174 ft 447 kts 201°
2026-04-29 11:22 46.51507 13.81892 34164 ft 446 kts 201°
2026-04-29 11:23 46.45486 13.79647 34163 ft 447 kts 201°
2026-04-29 11:23 46.39453 13.77416 34184 ft 449 kts 201°
2026-04-29 11:24 46.33407 13.75183 34162 ft 447 kts 201°
2026-04-29 11:24 46.27420 13.72975 34168 ft 446 kts 201°
2026-04-29 11:25 46.21378 13.70776 34162 ft 448 kts 200°
2026-04-29 11:25 46.15287 13.68796 34160 ft 448 kts 200°
2026-04-29 11:26 45.99178 13.63559 34123 ft 446 kts 200°
2026-04-29 11:26 45.89173 13.60231 34123 ft 443 kts 204°
2026-04-29 11:27 45.83769 13.56411 34021 ft 427 kts 223°
2026-04-29 11:27 45.81531 13.53665 33596 ft 421 kts 232°
2026-04-29 11:27 45.79523 13.50600 32751 ft 424 kts 232°
2026-04-29 11:28 45.75538 13.44481 31195 ft 426 kts 232°
2026-04-29 11:28 45.71524 13.38394 30126 ft 416 kts 232°
2026-04-29 11:28 45.67590 13.32455 28978 ft 405 kts 232°
2026-04-29 11:28 45.63761 13.26686 27910 ft 395 kts 231°
2026-04-29 11:29 45.60019 13.21056 26861 ft 386 kts 231°
2026-04-29 11:29 45.56351 13.15553 25863 ft 378 kts 231°
2026-04-29 11:29 45.52746 13.10155 24869 ft 379 kts 231°
2026-04-29 11:29 45.48937 13.04446 24054 ft 404 kts 230°
2026-04-29 11:30 45.44750 12.98976 22557 ft 414 kts 219°
2026-04-29 11:30 45.40046 12.94479 21541 ft 400 kts 218°
2026-04-29 11:30 45.35484 12.90090 20442 ft 390 kts 218°
2026-04-29 11:30 45.31378 12.85315 19400 ft 375 kts 231°
2026-04-29 11:31 45.28532 12.79290 18345 ft 364 kts 240°
2026-04-29 11:31 45.25635 12.73511 17318 ft 354 kts 236°
2026-04-29 11:31 45.21104 12.64646 15771 ft 341 kts 236°
2026-04-29 11:31 45.15626 12.53956 13879 ft 330 kts 236°
2026-04-29 11:32 45.14031 12.47961 12924 ft 317 kts 270°
2026-04-29 11:32 45.15154 12.42031 12043 ft 317 kts 289°
2026-04-29 11:32 45.16748 12.36026 11124 ft 328 kts 289°
2026-04-29 11:32 45.18304 12.30101 10412 ft 317 kts 289°
2026-04-29 11:33 45.19239 12.24237 10188 ft 288 kts 270°
2026-04-29 11:33 45.18979 12.18737 9673 ft 276 kts 265°
2026-04-29 11:33 45.18687 12.13303 9133 ft 273 kts 264°
2026-04-29 11:33 45.17188 12.08485 8852 ft 277 kts 223°
2026-04-29 11:34 45.14285 12.04870 8306 ft 275 kts 221°
2026-04-29 11:34 45.11446 12.01324 7787 ft 273 kts 221°
2026-04-29 11:34 45.08589 11.97727 7266 ft 274 kts 221°
2026-04-29 11:34 45.05738 11.94139 6739 ft 273 kts 221°
2026-04-29 11:35 45.02946 11.90633 6228 ft 271 kts 221°
2026-04-29 11:35 45.01069 11.87554 6074 ft 272 kts 247°
2026-04-29 11:35 45.00748 11.84980 6045 ft 270 kts 274°
2026-04-29 11:35 45.03657 11.79703 5794 ft 240 kts 340°
2026-04-29 11:36 45.05251 11.79335 5684 ft 227 kts
2026-04-29 11:36 45.06728 11.79849 5583 ft 213 kts 28°
2026-04-29 11:36 45.07877 11.81081 5407 ft 205 kts 43°
2026-04-29 11:36 45.10225 11.84026 5077 ft 203 kts 41°
2026-04-29 11:37 45.12358 11.86669 5039 ft 205 kts 41°
2026-04-29 11:37 45.14456 11.89300 4696 ft 198 kts 43°
2026-04-29 11:37 45.16497 11.91864 4194 ft 194 kts 44°
2026-04-29 11:37 45.18482 11.94297 4081 ft 188 kts 43°
2026-04-29 11:38 45.20475 11.96738 4098 ft 194 kts 44°
2026-04-29 11:38 45.22447 11.99247 4093 ft 185 kts 45°
2026-04-29 11:38 45.24434 12.01787 4090 ft 194 kts 44°
2026-04-29 11:38 45.26402 12.04300 4178 ft 201 kts 45°
2026-04-29 11:39 45.28862 12.07567 4049 ft 296 kts 43°
2026-04-29 11:39 45.30903 12.10033 3863 ft 291 kts 43°
2026-04-29 11:39 45.32372 12.11911 3744 ft 277 kts 43°
2026-04-29 11:39 45.33773 12.13702 3593 ft 261 kts 44°
2026-04-29 11:40 45.35077 12.15370 3465 ft 242 kts 44°
2026-04-29 11:40 45.36262 12.16889 3353 ft 224 kts 44°
2026-04-29 11:40 45.37383 12.18325 3132 ft 210 kts 44°
2026-04-29 11:40 45.38404 12.19632 2884 ft 186 kts 45°
2026-04-29 11:41 45.39305 12.20786 2700 ft 162 kts 45°
2026-04-29 11:41 45.40084 12.21783 2500 ft 140 kts 45°
2026-04-29 11:41 45.40761 12.22651 2319 ft 122 kts 46°
2026-04-29 11:41 45.41361 12.23423 2157 ft 115 kts 46°
2026-04-29 11:42 45.42259 12.24581 1938 ft 120 kts 46°
2026-04-29 11:42 45.43518 12.26191 1596 ft 117 kts 45°
2026-04-29 11:42 45.44703 12.27719 1294 ft 112 kts 45°
2026-04-29 11:42 45.45476 12.28709 1097 ft 124 kts 44°
2026-04-29 11:43 45.46114 12.29527 929 ft 121 kts 44°
2026-04-29 11:43 45.46720 12.30306 772 ft 116 kts 44°
2026-04-29 11:43 45.47318 12.31075 629 ft 116 kts 44°
2026-04-29 11:43 45.47932 12.31863 458 ft 119 kts 42°
2026-04-29 11:44 45.48544 12.32654 297 ft 117 kts 43°
2026-04-29 11:44 45.49135 12.33427 85 ft 110 kts 43°
2026-04-29 11:44 45.49709 12.34155 10 ft 106 kts 41°
2026-04-29 11:44 45.50008 12.34544 11 ft 0 kts 44°
2026-04-29 11:45 45.50045 12.34535 12 ft 15 kts 297°
2026-04-29 11:45 45.50206 12.34044 17 ft 0 kts 294°